• Join FlightAware (Why Join?)
  • Login
  • US Flag 
12:38AM EDT


 

Airport Tracker/Info


-or-


 

Live Flight TrackerFlight Track Log ✈ ASQ5719 ✈ 09-May-2013 ✈ KIAD - KBTV

Flight Track Log - Related Links

Times and Time Zones

All times are in EDT time to prevent confusion due to time zone crossing. See the ASQ5719 flight status page for this flight to view local times or setup timezone preferences in your user account.

Time Position Orientation Groundspeed Altitude Reporting Facility
EDT Latitude Longitude Course Direction KTS MPH feet Rate Location/Type
05:10PM 38.9833 -77.4667 72° East 169 194 1,700  Level Potomac TRACON
05:11PM 39.0500 -77.4667 360° North 245 282 3,200 2,580 Climbing Potomac TRACON
05:12PM 39.1167 -77.4667 360° North 266 306 6,700 2,100 Climbing Potomac TRACON
05:13PM 39.0167 -76.9846 90° East  Level FlightAware Approximate
05:14PM 39.0372 -76.8679 72° East  Level FlightAware Approximate
05:14PM 39.1147 -77.2314 91° East 306 352 10,400  Level Washington Center
05:15PM 39.0501 -76.7497 72° East  Level FlightAware Approximate
05:15PM 39.0750 -77.0969 111° Southeast 339 390 12,300  Level Washington Center
05:16PM 39.0744 -76.9578 90° East 365 420 14,200 1,860 Climbing Washington Center
05:17PM 39.0886 -76.8164 83° East 382 440 16,200 1,980 Climbing Washington Center
05:18PM 39.1044 -76.6803 81° East 387 445 18,100 1,740 Climbing Washington Center
05:19PM 39.1181 -76.5414 83° East 387 445 19,700 1,320 Climbing Washington Center
05:20PM 39.1317 -76.3997 83° East 387 445 20,900 1,080 Climbing Washington Center
05:21PM 39.1450 -76.2525 83° East 397 457 22,000 1,020 Climbing Washington Center
05:22PM 39.1667 -76.1028 79° East 408 470 23,000 480 Climbing Washington Center
05:23PM 39.1858 -75.9478 81° East 420 483 23,000 240 Level Washington Center
05:24PM 39.2467 -75.8139 60° Northeast 428 493 23,500 660 Climbing Washington Center
05:25PM 39.3322 -75.7042 45° Northeast 423 487 24,400 720 Climbing Washington Center
05:26PM 39.4178 -75.5917 45° Northeast 423 487 25,000 300 Climbing Washington Center
05:27PM 39.5050 -75.4758 46° Northeast 428 493 25,000  Level Washington Center
05:29PM 39.6472 -75.2950 44° Northeast 444 511 25,000  Level New York Center
05:30PM 39.7311 -75.1761 47° Northeast 444 511 25,000 420 Level New York Center
05:31PM 39.8150 -75.0492 49° Northeast 450 518 25,900 960 Climbing New York Center
05:32PM 39.8939 -74.9403 47° Northeast 444 511 27,000 540 Climbing New York Center
05:33PM 39.9794 -74.8208 47° Northeast 444 511 27,000  Level New York Center
05:34PM 40.0606 -74.7033 48° Northeast 439 505 27,000  Level New York Center
05:35PM 40.1456 -74.5861 46° Northeast 439 505 27,000  Level New York Center
05:36PM 40.2436 -74.4581 45° Northeast 445 512 27,000  Level New York Center
05:37PM 40.3592 -74.4236 13° North 431 496 27,000  Level New York Center
05:38PM 40.4811 -74.3917 11° North 420 483 27,000  Level New York Center
05:39PM 40.5967 -74.3597 12° North 426 490 27,000  Level New York Center
05:40PM 40.7142 -74.3303 11° North 426 490 27,000  Level New York Center
05:42PM 40.9767 -74.2711 10° North 430 495 27,000  Level Boston Center
05:43PM 41.0961 -74.2386 12° North 430 495 27,000  Level Boston Center
05:44PM 41.2153 -74.2089 11° North 430 495 27,000  Level Boston Center
05:45PM 41.3219 -74.1758 13° North 430 495 27,000  Level Boston Center
05:46PM 41.4414 -74.1458 11° North 430 495 27,000  Level Boston Center
05:47PM 41.5794 -74.1136 10° North 438 504 27,000  Level Boston Center
05:48PM 41.7008 -74.0806 11° North 446 513 27,000  Level Boston Center
05:49PM 41.7950 -74.0383 18° North 446 513 27,000  Level Boston Center
05:50PM 41.9394 -73.9947 13° North 446 513 27,000  Level Boston Center
05:51PM 42.0631 -73.9558 13° North 446 513 27,000  Level Boston Center
05:52PM 42.1886 -73.9167 13° North 451 519 27,000  Level Boston Center
05:53PM 42.3142 -73.8747 14° North 451 519 27,000  Level Boston Center
05:54PM 42.4356 -73.8383 12° North 451 519 27,000  Level Boston Center
05:55PM 42.5361 -73.8039 14° North 451 519 27,000  Level Boston Center
05:56PM 42.6719 -73.7589 14° North 451 519 27,000  Level Boston Center
05:57PM 42.8081 -73.7136 14° North 451 519 27,000  Level Boston Center
05:58PM 42.9208 -73.6792 13° North 456 525 27,000 -420 Level Boston Center
05:59PM 43.0464 -73.6361 14° North 451 519 26,200 -900 Descending Boston Center
06:00PM 43.1825 -73.5906 14° North 451 519 25,100 -1,020 Descending Boston Center
06:01PM 43.3267 -73.5417 14° North 451 519 24,000 -600 Descending Boston Center
06:02PM 43.4436 -73.5039 13° North 445 512 24,000  Level Boston Center
06:03PM 43.5650 -73.4658 13° North 440 506 24,000 -360 Level Boston Center
06:04PM 43.6842 -73.4247 14° North 440 506 23,300 -1,800 Descending Boston Center
06:05PM 43.7947 -73.3892 13° North 419 482 20,500 -3,060 Descending Boston Center
06:06PM 43.8931 -73.3561 14° North 403 464 17,200 -3,420 Descending Boston Center
06:07PM 43.9911 -73.3231 14° North 375 432 13,700 -3,360 Descending Boston Center
06:08PM 44.0808 -73.3358 354° North 334 384 10,500 -2,820 Descending Boston Center
06:09PM 44.1597 -73.3486 353° North 296 341 8,100 -2,100 Descending Boston Center
06:10PM 44.2328 -73.3586 354° North 273 314 6,300 -1,800 Descending Boston Center
06:11PM 44.3014 -73.3683 354° North 254 292 4,600 -1,680 Descending Boston Center
06:12PM 44.3744 -73.3519 North 254 292 3,000 -1,320 Descending Boston Center
06:13PM 44.4433 -73.3239 16° North 254 292 2,000 -1,020 Descending Boston Center